TimeEDT,TemperatureF,Dew PointF,Humidity,Sea Level PressureIn,VisibilityMPH,Wind Direction,Wind SpeedMPH,Gust SpeedMPH,PrecipitationIn,Events,Conditions,WindDirDegrees,DateUTC
12:15 AM,75.2,75.2,100,29.98,10.0,South,6.9,-,N/A,,Mostly Cloudy,170,2013-06-03 04:15:00
12:35 AM,75.2,75.2,100,29.98,10.0,South,5.8,-,N/A,,Overcast,180,2013-06-03 04:35:00
12:55 AM,75.2,75.2,100,29.97,10.0,South,9.2,-,N/A,,Overcast,170,2013-06-03 04:55:00
1:15 AM,75.2,75.2,100,29.97,10.0,South,9.2,-,N/A,,Overcast,170,2013-06-03 05:15:00
1:35 AM,75.2,75.2,100,29.98,10.0,South,5.8,-,N/A,,Overcast,190,2013-06-03 05:35:00
1:55 AM,75.2,75.2,100,29.98,10.0,SSW,6.9,-,N/A,,Mostly Cloudy,200,2013-06-03 05:55:00
2:15 AM,75.2,75.2,100,29.97,10.0,SSW,6.9,-,N/A,,Scattered Clouds,200,2013-06-03 06:15:00
2:35 AM,73.4,73.4,100,29.96,10.0,South,6.9,-,N/A,,Clear,180,2013-06-03 06:35:00
2:55 AM,73.4,73.4,100,29.95,10.0,South,5.8,-,N/A,,Scattered Clouds,190,2013-06-03 06:55:00
3:15 AM,73.4,73.4,100,29.95,10.0,South,6.9,-,N/A,,Scattered Clouds,190,2013-06-03 07:15:00
3:35 AM,73.4,73.4,100,29.94,10.0,South,8.1,-,N/A,,Mostly Cloudy,190,2013-06-03 07:35:00
3:55 AM,75.2,75.2,100,29.94,10.0,SSW,8.1,-,N/A,,Mostly Cloudy,200,2013-06-03 07:55:00
4:15 AM,73.4,73.4,100,29.93,10.0,SSW,5.8,-,N/A,,Scattered Clouds,210,2013-06-03 08:15:00
4:35 AM,73.4,73.4,100,29.93,10.0,SSW,5.8,-,N/A,,Scattered Clouds,200,2013-06-03 08:35:00
4:55 AM,73.4,73.4,100,29.92,10.0,South,4.6,-,N/A,,Scattered Clouds,190,2013-06-03 08:55:00
5:15 AM,73.4,73.4,100,29.92,10.0,South,4.6,-,N/A,,Scattered Clouds,190,2013-06-03 09:15:00
5:35 AM,73.4,73.4,100,29.92,10.0,Calm,Calm,-,N/A,,Mostly Cloudy,0,2013-06-03 09:35:00
5:55 AM,73.4,73.4,100,29.93,10.0,Calm,Calm,-,N/A,,Overcast,0,2013-06-03 09:55:00
6:15 AM,73.4,73.4,100,29.93,10.0,SSW,4.6,-,N/A,Rain,Light Rain,200,2013-06-03 10:15:00
6:35 AM,73.4,73.4,100,29.93,10.0,South,4.6,-,0.01,,Mostly Cloudy,180,2013-06-03 10:35:00
6:55 AM,73.4,73.4,100,29.93,10.0,South,4.6,-,0.01,,Mostly Cloudy,190,2013-06-03 10:55:00
7:15 AM,73.4,73.4,100,29.93,10.0,SSW,4.6,-,N/A,,Overcast,200,2013-06-03 11:15:00
7:35 AM,75.2,75.2,100,29.93,10.0,South,4.6,-,N/A,,Mostly Cloudy,190,2013-06-03 11:35:00
7:55 AM,77.0,77.0,100,29.93,10.0,South,6.9,-,N/A,,Mostly Cloudy,180,2013-06-03 11:55:00
8:15 AM,77.0,77.0,100,29.94,10.0,South,6.9,-,N/A,,Mostly Cloudy,190,2013-06-03 12:15:00
8:35 AM,77.0,77.0,100,29.94,10.0,South,8.1,-,N/A,,Mostly Cloudy,190,2013-06-03 12:35:00
8:55 AM,77.0,77.0,100,29.95,10.0,South,5.8,-,N/A,Rain,Light Rain,190,2013-06-03 12:55:00
9:15 AM,78.8,78.8,100,29.95,10.0,SSW,9.2,-,0.02,,Overcast,200,2013-06-03 13:15:00
9:35 AM,78.8,77.0,94,29.94,10.0,SSW,10.4,-,0.02,,Overcast,210,2013-06-03 13:35:00
9:55 AM,77.0,77.0,100,29.94,10.0,SSW,9.2,12.7,0.02,Rain,Light Rain,200,2013-06-03 13:55:00
10:15 AM,78.8,78.8,100,29.93,7.0,South,8.1,-,N/A,Rain,Light Rain,190,2013-06-03 14:15:00
10:35 AM,80.6,78.8,94,29.93,10.0,South,12.7,17.3,N/A,Thunderstorm,Thunderstorm,180,2013-06-03 14:35:00
10:55 AM,80.6,77.0,89,29.93,10.0,SSW,13.8,21.9,N/A,Thunderstorm,Overcast,200,2013-06-03 14:55:00
11:15 AM,78.8,77.0,94,29.93,10.0,SSW,12.7,17.3,N/A,Thunderstorm,Unknown,200,2013-06-03 15:15:00
11:35 AM,77.0,77.0,100,29.94,10.0,SW,10.4,18.4,N/A,Thunderstorm,Thunderstorm,220,2013-06-03 15:35:00
11:55 AM,69.8,69.8,100,29.96,2.5,NNW,6.9,24.2,0.04,Rain-Thunderstorm,Heavy Thunderstorms and Rain,330,2013-06-03 15:55:00
12:15 PM,69.8,69.8,100,29.94,4.0,Calm,Calm,-,0.09,Rain-Thunderstorm,Light Thunderstorms and Rain,0,2013-06-03 16:15:00
12:35 PM,69.8,69.8,100,29.95,10.0,SSE,5.8,-,0.15,Rain-Thunderstorm,Light Thunderstorms and Rain,160,2013-06-03 16:35:00
12:55 PM,69.8,69.8,100,29.95,10.0,WSW,5.8,-,0.18,Rain-Thunderstorm,Light Thunderstorms and Rain,240,2013-06-03 16:55:00
1:15 PM,69.8,69.8,100,29.95,7.0,South,8.1,-,0.03,Rain-Thunderstorm,Light Thunderstorms and Rain,190,2013-06-03 17:15:00
1:35 PM,71.6,71.6,100,29.93,10.0,SSW,4.6,-,0.06,Rain,Light Rain,200,2013-06-03 17:35:00
1:55 PM,71.6,71.6,100,29.93,10.0,SSW,4.6,-,0.07,Rain-Thunderstorm,Light Thunderstorms and Rain,200,2013-06-03 17:55:00
2:15 PM,73.4,73.4,100,29.93,10.0,SSW,3.5,-,N/A,,Scattered Clouds,210,2013-06-03 18:15:00
2:35 PM,73.4,73.4,100,29.92,10.0,Calm,Calm,-,N/A,,Clear,0,2013-06-03 18:35:00
2:55 PM,77.0,77.0,100,29.91,10.0,Calm,Calm,-,N/A,Thunderstorm,Scattered Clouds,0,2013-06-03 18:55:00
3:15 PM,78.8,77.0,94,29.90,10.0,SSW,5.8,-,N/A,,Clear,210,2013-06-03 19:15:00
3:35 PM,77.0,77.0,100,29.92,10.0,SW,6.9,-,N/A,Rain,Light Rain,220,2013-06-03 19:35:00
3:55 PM,77.0,77.0,100,29.91,10.0,SSW,3.5,-,N/A,Rain-Thunderstorm,Light Thunderstorms and Rain,200,2013-06-03 19:55:00
4:15 PM,77.0,77.0,100,29.91,10.0,South,3.5,-,N/A,Rain-Thunderstorm,Light Thunderstorms and Rain,180,2013-06-03 20:15:00
4:35 PM,75.2,75.2,100,29.90,10.0,SW,4.6,-,N/A,,Scattered Clouds,220,2013-06-03 20:35:00
4:55 PM,77.0,77.0,100,29.89,10.0,South,3.5,-,N/A,,Light Drizzle,170,2013-06-03 20:55:00
5:15 PM,77.0,77.0,100,29.90,10.0,Calm,Calm,-,N/A,,Scattered Clouds,0,2013-06-03 21:15:00
5:35 PM,77.0,77.0,100,29.90,10.0,South,5.8,-,N/A,,Mostly Cloudy,190,2013-06-03 21:35:00
5:55 PM,77.0,77.0,100,29.90,10.0,Calm,Calm,-,N/A,,Mostly Cloudy,0,2013-06-03 21:55:00
6:15 PM,78.8,75.2,89,29.90,10.0,Calm,Calm,-,N/A,,Mostly Cloudy,0,2013-06-03 22:15:00
6:35 PM,77.0,77.0,100,29.91,10.0,Calm,Calm,-,N/A,,Overcast,0,2013-06-03 22:35:00
6:55 PM,77.0,73.4,89,29.90,10.0,Calm,Calm,-,N/A,,Overcast,0,2013-06-03 22:55:00
7:15 PM,78.8,77.0,94,29.90,10.0,East,4.6,-,N/A,,Mostly Cloudy,90,2013-06-03 23:15:00
7:35 PM,75.2,73.4,94,29.90,10.0,ESE,9.2,-,N/A,,Mostly Cloudy,110,2013-06-03 23:35:00
7:55 PM,73.4,71.6,94,29.91,10.0,ESE,4.6,-,N/A,,Scattered Clouds,120,2013-06-03 23:55:00
8:15 PM,71.6,69.8,94,29.92,10.0,Calm,Calm,-,N/A,,Clear,0,2013-06-04 00:15:00
8:35 PM,71.6,71.6,100,29.92,10.0,Calm,Calm,-,N/A,,Clear,0,2013-06-04 00:35:00
8:55 PM,71.6,71.6,100,29.92,10.0,Calm,Calm,-,N/A,,Clear,0,2013-06-04 00:55:00
9:15 PM,71.6,71.6,100,29.92,10.0,Calm,Calm,-,N/A,Thunderstorm,Clear,0,2013-06-04 01:15:00
9:35 PM,71.6,71.6,100,29.94,10.0,South,4.6,-,N/A,Thunderstorm,Clear,190,2013-06-04 01:35:00
9:55 PM,71.6,71.6,100,29.93,10.0,SSW,8.1,-,N/A,,Clear,200,2013-06-04 01:55:00
10:15 PM,71.6,71.6,100,29.94,10.0,WNW,8.1,-,N/A,Rain-Thunderstorm,Light Thunderstorms and Rain,290,2013-06-04 02:15:00
10:35 PM,71.6,71.6,100,29.95,10.0,Calm,Calm,-,0.01,Rain,Light Rain,0,2013-06-04 02:35:00
10:55 PM,71.6,71.6,100,29.97,10.0,Calm,Calm,-,0.01,,Mostly Cloudy,0,2013-06-04 02:55:00
11:15 PM,71.6,71.6,100,29.96,10.0,South,5.8,-,N/A,,Mostly Cloudy,190,2013-06-04 03:15:00
11:35 PM,71.6,71.6,100,29.96,10.0,South,6.9,-,N/A,Rain,Light Rain,190,2013-06-04 03:35:00
11:55 PM,71.6,71.6,100,29.95,10.0,SSW,5.8,-,0.01,,Mostly Cloudy,210,2013-06-04 03:55:00